Total_Precipitation_Accumulation
0.97 0.92 0.84 0.85 0.79 0.91 1.07 1.17 1.13 1.04 1.03 0.97 0.89 0.99 1.04 1.13 1.17 1.22 1.35 1.45 1.71 2.13 2.46 2.46 2.18 1.93 1.81 1.78 1.83 1.86 1.92 2.04 2.03 2.00 2.03 1.98 1.94 1.80 1.73 1.74 1.69 1.64 1.71
0.99 0.97 0.94 0.97 0.93 0.98 1.13 1.15 1.06 1.11 1.18 1.09 0.90 0.92 1.02 1.10 1.16 1.18 1.22 1.38 1.55 1.74 2.26 2.58 2.50 2.28 2.21 2.04 2.13 2.15 2.09 1.91 1.84 1.90 1.93 1.95 1.97 1.80 1.68 1.62 1.60 1.52 1.53
0.87 0.91 0.94 0.95 1.00 1.10 1.17 1.22 1.07 1.12 1.10 1.03 0.97 0.92 0.94 0.98 1.02 1.08 1.05 1.11 1.27 1.46 1.87 2.32 2.61 2.59 2.59 2.51 2.38 2.24 2.02 1.80 1.78 1.82 1.87 1.81 1.87 1.80 1.69 1.72 1.62 1.62 1.60
0.81 0.95 0.98 0.95 0.98 1.13 1.25 1.32 1.24 1.23 1.19 1.15 1.12 1.04 0.95 1.02 0.97 1.01 1.05 1.03 1.20 1.20 1.46 1.77 2.05 2.30 2.57 2.54 2.35 2.25 2.04 1.70 1.63 1.74 1.80 1.68 1.73 1.77 1.65 1.74 1.67 1.60 1.56
0.91 1.10 1.21 1.20 1.18 1.22 1.23 1.20 1.29 1.32 1.31 1.30 1.22 1.17 1.09 1.05 1.10 1.03 1.05 1.10 1.09 1.15 1.31 1.36 1.47 1.56 1.95 2.21 2.26 2.43 2.32 1.86 1.61 1.69 1.77 1.60 1.59 1.73 1.62 1.62 1.59 1.47 1.40
1.26 1.44 1.42 1.49 1.56 1.46 1.43 1.39 1.43 1.39 1.32 1.36 1.25 1.15 1.10 1.03 1.17 1.22 1.17 1.20 1.18 1.11 1.31 1.43 1.39 1.18 1.40 1.72 2.02 2.41 2.60 2.20 1.86 1.76 1.85 1.72 1.61 1.76 1.61 1.58 1.58 1.35 1.28
1.56 1.81 1.76 1.83 1.90 1.81 1.78 1.79 2.00 1.95 1.67 1.44 1.51 1.36 1.19 1.09 1.26 1.33 1.27 1.32 1.37 1.40 1.51 1.51 1.40 1.24 1.10 1.19 1.43 1.96 2.59 2.47 2.22 1.99 1.96 1.86 1.65 1.61 1.45 1.45 1.49 1.39 1.24
1.48 1.62 1.89 2.01 1.98 2.07 2.20 2.18 2.55 2.68 2.21 1.77 1.80 1.99 1.75 1.57 1.37 1.24 1.26 1.30 1.43 1.63 1.67 1.52 1.39 1.23 1.12 1.12 0.97 1.35 1.97 2.31 2.33 2.20 2.04 1.85 1.68 1.52 1.47 1.52 1.49 1.53 1.39
1.45 1.56 1.71 1.86 1.90 2.02 2.16 2.27 2.61 3.12 2.88 2.27 2.04 2.37 2.13 1.90 1.77 1.44 1.25 1.27 1.39 1.67 1.90 1.81 1.58 1.41 1.23 1.24 1.12 1.13 1.36 1.65 2.17 2.38 2.28 2.04 1.91 1.67 1.58 1.70 1.53 1.65 1.66
1.33 1.41 1.54 1.68 1.82 1.86 2.01 2.11 2.24 2.76 3.15 2.83 2.51 2.19 1.87 1.81 1.95 1.85 1.49 1.38 1.42 1.56 1.75 1.75 1.63 1.59 1.44 1.32 1.20 1.10 1.16 1.30 1.82 2.23 2.43 2.36 2.19 1.96 1.94 2.12 1.84 1.71 1.69
1.44 1.44 1.57 1.65 1.67 1.74 1.86 2.19 2.46 2.73 2.95 2.94 2.87 2.66 2.39 2.11 1.78 1.96 1.95 1.68 1.56 1.51 1.57 1.62 1.57 1.58 1.57 1.49 1.53 1.30 1.13 1.14 1.37 1.81 2.29 2.60 2.50 2.31 2.40 2.49 2.11 1.93 1.84
1.56 1.59 1.64 1.64 1.62 1.67 1.78 2.01 2.31 2.53 2.83 3.01 2.93 2.72 2.60 2.47 2.25 2.15 1.99 1.85 1.82 1.64 1.51 1.49 1.42 1.44 1.54 1.68 1.65 1.62 1.26 1.04 1.05 1.35 1.70 2.08 2.35 2.45 2.63 2.64 2.39 2.33 2.16
1.47 1.50 1.58 1.70 1.77 1.81 1.93 2.11 2.26 2.19 2.38 2.76 2.77 2.62 2.53 2.33 2.31 2.36 2.25 1.96 1.80 1.52 1.40 1.35 1.31 1.42 1.42 1.46 1.68 1.84 1.39 1.11 0.94 1.17 1.34 1.46 1.71 2.06 2.48 2.72 2.74 2.71 2.58
1.42 1.36 1.39 1.50 1.62 1.79 1.85 1.90 1.93 1.91 2.01 2.26 2.35 2.53 2.63 2.39 2.26 2.14 2.07 2.12 1.90 1.63 1.46 1.33 1.24 1.28 1.31 1.35 1.57 1.73 1.37 1.18 0.90 0.87 0.97 1.17 1.28 1.43 1.75 2.16 2.53 2.64 2.78
1.16 1.08 1.08 1.15 1.23 1.29 1.38 1.53 1.62 1.75 1.79 1.91 2.06 2.20 2.36 2.46 2.36 2.13 2.04 2.03 2.02 1.85 1.62 1.49 1.33 1.16 1.27 1.40 1.61 1.41 1.30 1.29 1.07 0.92 0.86 0.92 1.03 1.08 1.22 1.36 1.54 1.85 2.27
1.09 1.00 0.96 0.93 0.92 0.88 0.92 1.12 1.32 1.45 1.54 1.69 1.87 2.01 2.05 2.11 2.29 2.23 2.03 2.00 1.94 1.84 1.70 1.50 1.39 1.26 1.44 1.38 1.53 1.36 1.36 1.42 1.14 1.04 0.94 0.88 0.87 0.81 0.80 0.85 0.87 1.01 1.39
1.08 1.06 0.96 0.89 0.98 0.98 0.94 1.01 1.07 1.15 1.21 1.34 1.47 1.59 1.75 2.01 2.31 2.32 2.25 2.12 1.99 1.86 1.66 1.50 1.29 1.23 1.53 1.64 1.56 1.45 1.42 1.38 1.15 1.10 0.99 0.89 0.83 0.77 0.71 0.66 0.67 0.71 0.84
0.74 0.83 0.92 0.86 0.84 0.88 0.91 0.97 0.99 1.03 1.07 1.16 1.25 1.38 1.55 1.83 2.17 2.38 2.45 2.33 2.17 2.02 1.90 1.76 1.43 1.20 1.32 1.65 1.78 1.72 1.52 1.38 1.23 1.16 1.02 0.90 0.83 0.74 0.68 0.66 0.66 0.66 0.67
0.57 0.62 0.71 0.71 0.80 0.89 0.91 0.94 0.95 0.98 1.01 1.10 1.24 1.29 1.34 1.52 1.71 1.92 2.11 2.23 2.21 2.18 2.17 1.94 1.63 1.37 1.30 1.42 1.67 1.69 1.62 1.61 1.39 1.31 1.30 1.15 1.01 0.90 0.79 0.70 0.69 0.66 0.63
0.64 0.69 0.80 0.82 0.77 0.76 0.81 0.93 0.96 0.92 0.90 0.94 1.01 1.11 1.20 1.24 1.39 1.53 1.65 1.84 2.05 2.29 2.37 2.21 1.95 1.62 1.49 1.38 1.48 1.64 1.71 1.67 1.59 1.41 1.37 1.25 1.24 1.17 1.05 0.88 0.75 0.68 0.69
0.71 0.72 0.81 0.91 0.96 0.90 0.87 0.96 0.92 0.90 0.91 0.89 0.92 0.93 1.00 1.01 1.07 1.25 1.30 1.53 1.85 2.12 2.22 2.29 2.16 1.85 1.59 1.41 1.20 1.31 1.57 1.80 1.81 1.73 1.72 1.47 1.34 1.19 1.11 1.07 0.99 0.86 0.77
0.58 0.57 0.60 0.66 0.75 0.80 1.00 0.96 0.79 0.75 0.80 0.86 0.91 0.90 0.92 0.86 0.83 0.90 1.03 1.16 1.46 1.68 1.82 1.90 1.92 1.76 1.54 1.41 1.36 1.33 1.40 1.55 1.60 1.50 1.55 1.62 1.55 1.40 1.30 1.18 1.18 1.21 1.12
0.47 0.44 0.44 0.45 0.51 0.66 0.75 0.59 0.57 0.61 0.75 0.86 0.93 0.95 0.91 0.85 0.89 0.90 0.92 0.93 1.00 1.18 1.40 1.60 1.63 1.54 1.59 1.51 1.43 1.33 1.34 1.36 1.34 1.45 1.53 1.60 1.59 1.47 1.40 1.39 1.41 1.31 1.24
0.39 0.38 0.43 0.50 0.51 0.53 0.61 0.51 0.48 0.57 0.76 0.89 0.89 0.85 0.92 0.93 0.95 1.01 0.94 1.01 0.97 0.95 1.04 1.09 1.23 1.43 1.58 1.75 1.73 1.62 1.63 1.56 1.47 1.58 1.60 1.55 1.46 1.38 1.29 1.26 1.32 1.20 1.11
0.44 0.44 0.54 0.61 0.55 0.49 0.54 0.54 0.58 0.71 0.83 0.91 0.87 0.87 0.94 0.99 1.12 1.17 1.07 1.13 1.09 1.06 1.03 1.13 1.22 1.33 1.42 1.54 1.69 1.73 1.69 1.66 1.52 1.45 1.46 1.42 1.31 1.32 1.31 1.20 1.12 1.12 1.02
0.39 0.46 0.47 0.45 0.45 0.52 0.60 0.57 0.67 0.84 0.96 1.06 1.01 1.00 1.19 1.14 1.12 1.07 1.05 1.19 1.16 1.02 0.94 0.98 1.04 1.13 1.17 1.26 1.40 1.45 1.58 1.65 1.56 1.41 1.23 1.22 1.22 1.26 1.30 1.19 1.08 1.01 0.98